Find Local Weather

World > North America > United States > California

Oakland, California Regional Weather

Lat: 37.77N, Lon: 122.22W
Wx Zone: CAZ508
Warning FLW WEATHER ALERT - (More Info. Click Here) Warning
Feedback
Expires:201811192300;;558428
ASUS46 KSTO 192209
RWRCA 

NORTHERN AND CENTRAL CA REGIONAL WEATHER ROUNDUP
NATIONAL WEATHER SERVICE SACRAMENTO CA 
200 PM PST MON NOV 19 2018

NOTE: FAIR INDICATES FEW OR NO CLOUDS BELOW 12,000 FEET WITH NO
SIGNIFICANT WEATHER AND/OR OBSTRUCTIONS TO VISIBILITY.


CAZ006-505>513-192300-
BAY AREA
  
CITY           SKY/WX    TMP DP  RH WIND       PRES   REMARKS
SANTA ROSA     SUNNY     65  37  35 S3        29.99F HAZE             
SAN RAFAEL     N/A       64  MM  MM MISG
NAPA           MOSUNNY   68  30  24 SE7       30.00F                  
CONCORD        CLOUDY    68  31  25 NE6       30.02F HAZE             
OAKLAND CITY   N/A       62  MM  MM MISG
OAKLAND        PTSUNNY   60  42  51 CALM      30.01F HAZE             
SAN FRAN CITY  N/A       65  MM  30 MISG
SAN FRAN ARPT  CLOUDY    58  46  64 N5        30.00F HAZE             
LIVERMORE      PTSUNNY   65  28  24 E10       30.01F HAZE             
HAYWARD        PTSUNNY   61  41  47 NW3       30.00F HAZE             
REDWOOD CITY   N/A       63  MM  44 MISG
MOFFETT ARPT   PTSUNNY   64  44  48 N5        30.01F SMOKE            
SAN JOSE ARPT  CLOUDY    65  39  38 CALM      30.00F HAZE             
$$

SKY/WX - Weather  TMP - Temperature  DP - Dew Point  RH - Relative Humidity
WIND - Wind Direction/Speed PRES - Barometric Pressure